Location: Monfort
(47.1967°N, 0.2115°W)
Time: 09:08:31
(UTC+00:00)

CZ-4C R/B - Pass Details

Date: 24 October 2020
Orbit: 624 x 1378 km, 63.4° (Epoch: 27 November)

Event Time Altitude Azimuth Distance (km) Brightness Sun altitude
Rises 21:16:53 0° 320° (NW) 3,767 6.3 -43.2°
Reaches altitude 10° 21:19:21 10° 322° (NW) 2,915 5.6 -43.6°
Enters shadow 21:22:26 30° 328° (NNW) 1,930 4.3 -44.0°
